Location: Fort Worth, Tx
(32.7431°N, 97.3695°W)
Time: 11:52:48
(UTC-05:00)

ISS - Visible Passes

Search period start: 26 February 2017 00:00
Search period end: 08 March 2017 00:00
Orbit: 399 x 408 km, 51.6° (Epoch: 26 February)

Date Brightness Start Highest point End Pass type
(mag) Time Alt. Az. Time Alt. Az. Time Alt. Az.
28 Feb -1.2 06:53:07 10° S 06:55:56 27° SE 06:58:46 10° ENE visible
01 Mar -0.3 06:02:17 11° SSE 06:03:35 12° SE 06:05:04 10° E visible
02 Mar -3.3 06:45:26 26° SW 06:47:10 84° SE 06:50:27 10° NE visible
03 Mar -1.2 05:55:39 27° E 05:55:39 27° E 05:57:41 10° ENE visible
04 Mar -2.5 06:38:20 33° NW 06:38:28 34° NW 06:41:30 10° NNE visible
05 Mar -0.6 05:48:10 18° NE 05:48:10 18° NE 05:49:06 10° NE visible
06 Mar -1.1 06:30:32 15° NNW 06:30:32 15° NNW 06:31:59 10° N visible
